Time,TemperatureF,DewpointF,PressureIn,WindDirection,WindDirectionDegrees,WindSpeedMPH,WindSpeedGustMPH,Humidity,HourlyPrecipIn,Conditions,Clouds,dailyrainin,SolarRadiationWatts/m^2,SoftwareType,DateUTC
2013-03-25 00:03:00,57.7,55.0,29.96,West,259,1.0,1.0,91,0.00,,,0.00,0,HR-IXP-WINDi_r2_v1.2,2013-03-25 07:03:00,
2013-03-25 00:08:00,57.6,54.9,29.96,West,259,0.0,1.0,91,0.00,,,0.00,0,HR-IXP-WINDi_r2_v1.2,2013-03-25 07:08:00,
2013-03-25 00:13:00,57.7,55.3,29.96,West,259,0.0,1.0,92,0.00,,,0.00,0,HR-IXP-WINDi_r2_v1.2,2013-03-25 07:13:00,
2013-03-25 00:19:00,57.8,55.4,29.96,West,259,0.0,1.0,92,0.00,,,0.00,0,HR-IXP-WINDi_r2_v1.2,2013-03-25 07:19:00,
2013-03-25 00:24:00,57.5,55.1,29.96,West,259,0.0,1.0,92,0.00,,,0.00,0,HR-IXP-WINDi_r2_v1.2,2013-03-25 07:24:00,
2013-03-25 00:29:00,57.2,54.8,29.96,West,259,1.0,2.0,92,0.00,,,0.00,0,HR-IXP-WINDi_r2_v1.2,2013-03-25 07:29:00,
2013-03-25 00:34:00,57.2,54.8,29.96,West,259,0.0,2.0,92,0.00,,,0.00,0,HR-IXP-WINDi_r2_v1.2,2013-03-25 07:34:00,
2013-03-25 00:39:00,57.2,54.8,29.96,West,259,0.0,2.0,92,0.00,,,0.00,0,HR-IXP-WINDi_r2_v1.2,2013-03-25 07:39:00,
2013-03-25 00:45:00,57.2,54.8,29.96,West,259,0.0,2.0,92,0.00,,,0.00,0,HR-IXP-WINDi_r2_v1.2,2013-03-25 07:45:00,
2013-03-25 00:50:00,57.2,55.1,29.96,West,259,0.0,1.0,93,0.00,,,0.00,0,HR-IXP-WINDi_r2_v1.2,2013-03-25 07:50:00,
2013-03-25 00:55:00,57.0,54.9,29.96,West,259,0.0,2.0,93,0.00,,,0.00,0,HR-IXP-WINDi_r2_v1.2,2013-03-25 07:55:00,
2013-03-25 01:00:00,56.9,54.8,29.96,WSW,255,0.0,3.0,93,0.00,,,0.00,0,HR-IXP-WINDi_r2_v1.2,2013-03-25 08:00:00,
2013-03-25 01:05:00,56.9,54.8,29.96,WSW,255,1.0,3.0,93,0.00,,,0.00,0,HR-IXP-WINDi_r2_v1.2,2013-03-25 08:05:00,
2013-03-25 01:11:00,56.7,54.6,29.96,WSW,253,0.0,2.0,93,0.00,,,0.00,0,HR-IXP-WINDi_r2_v1.2,2013-03-25 08:11:00,
2013-03-25 01:16:00,56.6,54.5,29.96,WSW,253,1.0,2.0,93,0.00,,,0.00,0,HR-IXP-WINDi_r2_v1.2,2013-03-25 08:16:00,
2013-03-25 01:21:00,56.5,54.7,29.96,WSW,253,0.0,2.0,94,0.00,,,0.00,0,HR-IXP-WINDi_r2_v1.2,2013-03-25 08:21:00,
2013-03-25 01:26:00,56.6,54.8,29.96,SSW,209,0.0,2.0,94,0.00,,,0.00,0,HR-IXP-WINDi_r2_v1.2,2013-03-25 08:26:00,
2013-03-25 01:31:00,56.6,54.8,29.96,SSW,209,1.0,2.0,94,0.00,,,0.00,0,HR-IXP-WINDi_r2_v1.2,2013-03-25 08:31:00,
2013-03-25 01:36:00,56.5,54.7,29.96,SSW,209,0.0,2.0,94,0.00,,,0.00,0,HR-IXP-WINDi_r2_v1.2,2013-03-25 08:36:00,
2013-03-25 01:42:00,56.6,54.8,29.96,SSW,209,1.0,2.0,94,0.00,,,0.00,0,HR-IXP-WINDi_r2_v1.2,2013-03-25 08:42:00,
2013-03-25 01:47:00,56.6,54.8,29.96,SSW,209,0.0,3.0,94,0.00,,,0.00,0,HR-IXP-WINDi_r2_v1.2,2013-03-25 08:47:00,
2013-03-25 01:52:00,56.4,54.6,29.96,SSW,209,0.0,3.0,94,0.00,,,0.00,0,HR-IXP-WINDi_r2_v1.2,2013-03-25 08:52:00,
2013-03-25 01:57:00,56.2,54.4,29.96,SSW,209,0.0,2.0,94,0.00,,,0.00,0,HR-IXP-WINDi_r2_v1.2,2013-03-25 08:57:00,
2013-03-25 02:02:00,55.9,54.1,29.96,SSW,209,0.0,2.0,94,0.00,,,0.00,0,HR-IXP-WINDi_r2_v1.2,2013-03-25 09:02:00,
2013-03-25 02:08:00,55.9,54.4,29.96,SSW,209,0.0,2.0,95,0.00,,,0.00,0,HR-IXP-WINDi_r2_v1.2,2013-03-25 09:08:00,
2013-03-25 02:13:00,55.9,54.4,29.96,SSW,209,0.0,2.0,95,0.00,,,0.00,0,HR-IXP-WINDi_r2_v1.2,2013-03-25 09:13:00,
2013-03-25 02:18:00,55.8,54.3,29.96,South,186,0.0,3.0,95,0.00,,,0.00,0,HR-IXP-WINDi_r2_v1.2,2013-03-25 09:18:00,
2013-03-25 02:23:00,55.8,54.3,29.96,South,186,0.0,3.0,95,0.00,,,0.00,0,HR-IXP-WINDi_r2_v1.2,2013-03-25 09:23:00,
2013-03-25 02:29:00,55.8,54.3,29.95,South,186,0.0,3.0,95,0.00,,,0.00,0,HR-IXP-WINDi_r2_v1.2,2013-03-25 09:29:00,
2013-03-25 02:34:00,55.8,54.3,29.95,South,186,0.0,2.0,95,0.00,,,0.00,0,HR-IXP-WINDi_r2_v1.2,2013-03-25 09:34:00,
2013-03-25 02:39:00,55.8,54.3,29.95,South,186,0.0,2.0,95,0.00,,,0.00,0,HR-IXP-WINDi_r2_v1.2,2013-03-25 09:39:00,
2013-03-25 02:44:00,55.7,54.2,29.95,South,186,0.0,2.0,95,0.00,,,0.00,0,HR-IXP-WINDi_r2_v1.2,2013-03-25 09:44:00,
2013-03-25 02:49:00,55.7,54.5,29.95,South,186,1.0,2.0,96,0.00,,,0.00,0,HR-IXP-WINDi_r2_v1.2,2013-03-25 09:49:00,
2013-03-25 02:55:00,55.7,54.5,29.95,South,189,0.0,3.0,96,0.00,,,0.00,0,HR-IXP-WINDi_r2_v1.2,2013-03-25 09:55:00,
2013-03-25 03:00:00,55.8,54.6,29.95,South,189,0.0,3.0,96,0.00,,,0.00,0,HR-IXP-WINDi_r2_v1.2,2013-03-25 10:00:00,
2013-03-25 03:05:00,55.7,54.5,29.95,South,186,2.0,3.0,96,0.00,,,0.00,0,HR-IXP-WINDi_r2_v1.2,2013-03-25 10:05:00,
2013-03-25 03:10:00,55.6,54.4,29.95,South,186,0.0,3.0,96,0.00,,,0.00,0,HR-IXP-WINDi_r2_v1.2,2013-03-25 10:10:00,
2013-03-25 03:15:00,55.6,54.4,29.95,South,186,0.0,3.0,96,0.00,,,0.00,0,HR-IXP-WINDi_r2_v1.2,2013-03-25 10:15:00,
2013-03-25 03:21:00,55.6,54.4,29.95,South,186,0.0,3.0,96,0.00,,,0.00,0,HR-IXP-WINDi_r2_v1.2,2013-03-25 10:21:00,
2013-03-25 03:26:00,55.8,54.6,29.95,South,186,1.0,2.0,96,0.00,,,0.00,0,HR-IXP-WINDi_r2_v1.2,2013-03-25 10:26:00,
2013-03-25 03:31:00,55.8,54.6,29.95,South,186,0.0,1.0,96,0.00,,,0.00,0,HR-IXP-WINDi_r2_v1.2,2013-03-25 10:31:00,
2013-03-25 03:36:00,55.8,54.6,29.95,South,186,2.0,2.0,96,0.00,,,0.00,0,HR-IXP-WINDi_r2_v1.2,2013-03-25 10:36:00,
2013-03-25 03:41:00,55.6,54.4,29.95,South,184,0.0,3.0,96,0.00,,,0.00,0,HR-IXP-WINDi_r2_v1.2,2013-03-25 10:41:00,
2013-03-25 03:46:00,55.4,54.2,29.95,South,184,1.0,3.0,96,0.00,,,0.00,0,HR-IXP-WINDi_r2_v1.2,2013-03-25 10:46:00,
2013-03-25 03:52:00,55.2,54.0,29.95,South,184,0.0,2.0,96,0.00,,,0.00,0,HR-IXP-WINDi_r2_v1.2,2013-03-25 10:52:00,
2013-03-25 03:57:00,55.2,54.0,29.95,South,184,0.0,2.0,96,0.00,,,0.00,0,HR-IXP-WINDi_r2_v1.2,2013-03-25 10:57:00,
2013-03-25 04:02:00,55.3,54.1,29.95,South,184,0.0,1.0,96,0.00,,,0.00,0,HR-IXP-WINDi_r2_v1.2,2013-03-25 11:02:00,
2013-03-25 04:07:00,55.3,54.1,29.95,South,184,0.0,1.0,96,0.00,,,0.00,0,HR-IXP-WINDi_r2_v1.2,2013-03-25 11:07:00,
2013-03-25 04:12:00,55.5,54.3,29.95,South,184,0.0,1.0,96,0.00,,,0.00,0,HR-IXP-WINDi_r2_v1.2,2013-03-25 11:12:00,
2013-03-25 04:17:00,55.5,54.6,29.95,South,184,1.0,2.0,97,0.00,,,0.00,0,HR-IXP-WINDi_r2_v1.2,2013-03-25 11:17:00,
2013-03-25 04:23:00,55.6,54.7,29.95,South,184,1.0,2.0,97,0.00,,,0.00,0,HR-IXP-WINDi_r2_v1.2,2013-03-25 11:23:00,
2013-03-25 04:28:00,55.5,54.6,29.95,South,184,0.0,2.0,97,0.00,,,0.00,0,HR-IXP-WINDi_r2_v1.2,2013-03-25 11:28:00,
2013-03-25 04:33:00,55.5,54.6,29.95,South,184,0.0,2.0,97,0.00,,,0.00,0,HR-IXP-WINDi_r2_v1.2,2013-03-25 11:33:00,
2013-03-25 04:38:00,55.4,54.5,29.96,South,184,1.0,2.0,97,0.00,,,0.00,0,HR-IXP-WINDi_r2_v1.2,2013-03-25 11:38:00,
2013-03-25 04:43:00,55.3,54.4,29.95,South,184,1.0,1.0,97,0.00,,,0.00,0,HR-IXP-WINDi_r2_v1.2,2013-03-25 11:43:00,
2013-03-25 04:49:00,55.2,54.3,29.96,South,184,0.0,2.0,97,0.00,,,0.00,0,HR-IXP-WINDi_r2_v1.2,2013-03-25 11:49:00,
2013-03-25 04:54:00,55.1,54.2,29.95,South,184,0.0,2.0,97,0.00,,,0.00,0,HR-IXP-WINDi_r2_v1.2,2013-03-25 11:54:00,
2013-03-25 04:59:00,55.1,54.2,29.96,South,184,0.0,3.0,97,0.00,,,0.00,0,HR-IXP-WINDi_r2_v1.2,2013-03-25 11:59:00,
2013-03-25 05:04:00,55.2,54.3,29.96,South,184,1.0,3.0,97,0.00,,,0.00,0,HR-IXP-WINDi_r2_v1.2,2013-03-25 12:04:00,
2013-03-25 05:09:00,55.0,54.1,29.96,South,184,0.0,3.0,97,0.00,,,0.00,0,HR-IXP-WINDi_r2_v1.2,2013-03-25 12:09:00,
2013-03-25 05:14:00,54.9,54.0,29.96,South,184,1.0,3.0,97,0.00,,,0.00,0,HR-IXP-WINDi_r2_v1.2,2013-03-25 12:14:00,
2013-03-25 05:19:00,54.7,53.8,29.96,South,184,0.0,3.0,97,0.00,,,0.00,0,HR-IXP-WINDi_r2_v1.2,2013-03-25 12:19:00,
2013-03-25 05:25:00,54.6,53.7,29.97,South,184,0.0,3.0,97,0.00,,,0.00,0,HR-IXP-WINDi_r2_v1.2,2013-03-25 12:25:00,
2013-03-25 05:30:00,54.7,53.8,29.97,South,184,0.0,2.0,97,0.00,,,0.00,0,HR-IXP-WINDi_r2_v1.2,2013-03-25 12:30:00,
2013-03-25 05:35:00,54.9,54.0,29.97,South,184,1.0,2.0,97,0.00,,,0.00,0,HR-IXP-WINDi_r2_v1.2,2013-03-25 12:35:00,
2013-03-25 05:40:00,54.9,54.0,29.97,South,184,2.0,2.0,97,0.00,,,0.00,0,HR-IXP-WINDi_r2_v1.2,2013-03-25 12:40:00,
2013-03-25 05:46:00,54.8,53.9,29.97,South,184,0.0,3.0,97,0.00,,,0.00,0,HR-IXP-WINDi_r2_v1.2,2013-03-25 12:46:00,
2013-03-25 05:51:00,54.8,53.9,29.97,South,184,0.0,3.0,97,0.00,,,0.00,0,HR-IXP-WINDi_r2_v1.2,2013-03-25 12:51:00,
2013-03-25 05:56:00,54.9,54.0,29.97,South,184,1.0,2.0,97,0.00,,,0.00,0,HR-IXP-WINDi_r2_v1.2,2013-03-25 12:56:00,
2013-03-25 06:01:00,54.8,53.9,29.97,South,184,0.0,2.0,97,0.00,,,0.00,0,HR-IXP-WINDi_r2_v1.2,2013-03-25 13:01:00,
2013-03-25 06:06:00,54.8,53.9,29.97,South,184,0.0,2.0,97,0.00,,,0.00,0,HR-IXP-WINDi_r2_v1.2,2013-03-25 13:06:00,
2013-03-25 06:11:00,54.8,53.9,29.97,South,184,0.0,1.0,97,0.00,,,0.00,0,HR-IXP-WINDi_r2_v1.2,2013-03-25 13:11:00,
2013-03-25 06:16:00,54.9,54.0,29.97,South,184,0.0,2.0,97,0.00,,,0.00,0,HR-IXP-WINDi_r2_v1.2,2013-03-25 13:16:00,
2013-03-25 06:21:00,54.9,54.0,29.98,South,184,0.0,2.0,97,0.00,,,0.00,0,HR-IXP-WINDi_r2_v1.2,2013-03-25 13:21:00,
2013-03-25 06:27:00,54.9,54.0,29.98,South,184,0.0,1.0,97,0.00,,,0.00,0,HR-IXP-WINDi_r2_v1.2,2013-03-25 13:27:00,
2013-03-25 06:32:00,55.0,54.1,29.98,South,184,0.0,1.0,97,0.00,,,0.00,0,HR-IXP-WINDi_r2_v1.2,2013-03-25 13:32:00,
2013-03-25 06:37:00,55.0,54.1,29.98,South,184,0.0,1.0,97,0.00,,,0.00,0,HR-IXP-WINDi_r2_v1.2,2013-03-25 13:37:00,
2013-03-25 06:42:00,55.1,54.2,29.98,South,184,0.0,1.0,97,0.00,,,0.00,0,HR-IXP-WINDi_r2_v1.2,2013-03-25 13:42:00,
2013-03-25 06:48:00,55.0,54.1,29.98,South,184,0.0,1.0,97,0.00,,,0.00,0,HR-IXP-WINDi_r2_v1.2,2013-03-25 13:48:00,
2013-03-25 06:53:00,54.8,53.9,29.98,SSE,163,2.0,3.0,97,0.00,,,0.00,0,HR-IXP-WINDi_r2_v1.2,2013-03-25 13:53:00,
2013-03-25 06:58:00,54.7,53.8,29.98,SSE,163,0.0,3.0,97,0.00,,,0.00,0,HR-IXP-WINDi_r2_v1.2,2013-03-25 13:58:00,
2013-03-25 07:03:00,54.8,53.9,29.98,SSE,163,0.0,2.0,97,0.00,,,0.00,5,HR-IXP-WINDi_r2_v1.2,2013-03-25 14:03:00,
2013-03-25 07:08:00,54.7,53.8,29.98,SSE,163,1.0,3.0,97,0.00,,,0.00,9,HR-IXP-WINDi_r2_v1.2,2013-03-25 14:08:00,
2013-03-25 07:14:00,54.7,53.8,29.98,SSE,163,0.0,3.0,97,0.00,,,0.00,12,HR-IXP-WINDi_r2_v1.2,2013-03-25 14:14:00,
2013-03-25 07:19:00,54.8,53.9,29.98,SSE,163,0.0,2.0,97,0.00,,,0.00,18,HR-IXP-WINDi_r2_v1.2,2013-03-25 14:19:00,
2013-03-25 07:24:00,54.7,53.8,29.98,SSE,163,1.0,2.0,97,0.00,,,0.00,21,HR-IXP-WINDi_r2_v1.2,2013-03-25 14:24:00,
2013-03-25 07:29:00,54.6,53.7,29.99,SE,142,2.0,4.0,97,0.00,,,0.00,26,HR-IXP-WINDi_r2_v1.2,2013-03-25 14:29:00,
2013-03-25 07:34:00,54.8,53.9,29.99,SE,142,1.0,4.0,97,0.00,,,0.00,26,HR-IXP-WINDi_r2_v1.2,2013-03-25 14:34:00,
2013-03-25 07:39:00,54.9,54.0,29.99,SE,142,1.0,3.0,97,0.00,,,0.00,32,HR-IXP-WINDi_r2_v1.2,2013-03-25 14:39:00,
2013-03-25 07:44:00,54.9,54.0,29.99,SE,142,0.0,3.0,97,0.00,,,0.00,35,HR-IXP-WINDi_r2_v1.2,2013-03-25 14:44:00,
2013-03-25 07:49:00,55.0,54.1,29.99,SE,142,1.0,3.0,97,0.00,,,0.00,42,HR-IXP-WINDi_r2_v1.2,2013-03-25 14:49:00,
2013-03-25 07:54:00,55.1,54.2,29.99,SE,142,1.0,3.0,97,0.00,,,0.00,42,HR-IXP-WINDi_r2_v1.2,2013-03-25 14:54:00,
2013-03-25 08:00:00,55.0,54.1,29.99,SE,142,0.0,2.0,97,0.00,,,0.00,49,HR-IXP-WINDi_r2_v1.2,2013-03-25 15:00:00,
2013-03-25 08:05:00,55.3,54.4,29.99,SE,142,0.0,2.0,97,0.00,,,0.00,58,HR-IXP-WINDi_r2_v1.2,2013-03-25 15:05:00,
2013-03-25 08:10:00,55.8,54.9,29.99,SE,142,0.0,3.0,97,0.00,,,0.00,63,HR-IXP-WINDi_r2_v1.2,2013-03-25 15:10:00,
2013-03-25 08:16:00,55.8,54.9,29.99,SE,134,0.0,3.0,97,0.00,,,0.00,72,HR-IXP-WINDi_r2_v1.2,2013-03-25 15:16:00,
2013-03-25 08:21:00,56.0,55.1,29.99,SE,134,0.0,3.0,97,0.00,,,0.00,74,HR-IXP-WINDi_r2_v1.2,2013-03-25 15:21:00,
2013-03-25 08:26:00,56.4,55.5,29.99,SE,129,1.0,3.0,97,0.00,,,0.00,93,HR-IXP-WINDi_r2_v1.2,2013-03-25 15:26:00,
2013-03-25 08:31:00,56.5,55.6,29.99,ESE,119,0.0,3.0,97,0.00,,,0.00,114,HR-IXP-WINDi_r2_v1.2,2013-03-25 15:31:00,
2013-03-25 08:37:00,57.0,56.1,29.99,ESE,107,0.0,4.0,97,0.00,,,0.00,118,HR-IXP-WINDi_r2_v1.2,2013-03-25 15:37:00,
2013-03-25 08:42:00,57.0,56.1,30.00,East,91,3.0,4.0,97,0.00,,,0.00,132,HR-IXP-WINDi_r2_v1.2,2013-03-25 15:42:00,
2013-03-25 08:47:00,57.1,56.2,30.00,East,91,0.0,3.0,97,0.00,,,0.00,121,HR-IXP-WINDi_r2_v1.2,2013-03-25 15:47:00,
2013-03-25 08:52:00,57.3,56.4,30.00,East,91,0.0,3.0,97,0.00,,,0.00,139,HR-IXP-WINDi_r2_v1.2,2013-03-25 15:52:00,
2013-03-25 08:58:00,56.7,55.5,30.00,East,91,0.0,2.0,96,0.00,,,0.00,163,HR-IXP-WINDi_r2_v1.2,2013-03-25 15:58:00,
2013-03-25 09:03:00,56.7,55.5,30.00,SSE,165,3.0,4.0,96,0.00,,,0.00,185,HR-IXP-WINDi_r2_v1.2,2013-03-25 16:03:00,
2013-03-25 09:08:00,56.5,55.3,30.00,SW,236,0.0,6.0,96,0.00,,,0.00,188,HR-IXP-WINDi_r2_v1.2,2013-03-25 16:08:00,
2013-03-25 09:13:00,56.8,55.6,30.00,SSW,192,1.0,6.0,96,0.00,,,0.00,230,HR-IXP-WINDi_r2_v1.2,2013-03-25 16:13:00,
2013-03-25 09:18:00,57.0,55.5,30.00,SSW,201,2.0,5.0,95,0.00,,,0.00,264,HR-IXP-WINDi_r2_v1.2,2013-03-25 16:18:00,
2013-03-25 09:24:00,57.5,56.0,30.01,SW,221,2.0,5.0,95,0.00,,,0.00,360,HR-IXP-WINDi_r2_v1.2,2013-03-25 16:24:00,
2013-03-25 09:29:00,57.4,55.6,30.00,South,183,2.0,5.0,94,0.00,,,0.00,315,HR-IXP-WINDi_r2_v1.2,2013-03-25 16:29:00,
2013-03-25 09:34:00,58.2,56.4,30.01,SSE,158,2.0,5.0,94,0.00,,,0.00,534,HR-IXP-WINDi_r2_v1.2,2013-03-25 16:34:00,
2013-03-25 09:39:00,59.7,57.3,30.01,SSE,156,2.0,5.0,92,0.00,,,0.00,434,HR-IXP-WINDi_r2_v1.2,2013-03-25 16:39:00,
2013-03-25 09:45:00,60.7,57.7,30.01,SSE,147,2.0,5.0,90,0.00,,,0.00,452,HR-IXP-WINDi_r2_v1.2,2013-03-25 16:45:00,
2013-03-25 09:50:00,60.1,56.5,30.01,SW,225,0.0,6.0,88,0.00,,,0.00,485,HR-IXP-WINDi_r2_v1.2,2013-03-25 16:50:00,
2013-03-25 09:55:00,60.2,56.2,30.01,SSW,209,3.0,6.0,87,0.00,,,0.00,443,HR-IXP-WINDi_r2_v1.2,2013-03-25 16:55:00,
2013-03-25 10:00:00,59.8,55.9,30.01,SSW,194,1.0,4.0,87,0.00,,,0.00,236,HR-IXP-WINDi_r2_v1.2,2013-03-25 17:00:00,
2013-03-25 10:05:00,59.8,55.9,30.01,SW,215,1.0,5.0,87,0.00,,,0.00,255,HR-IXP-WINDi_r2_v1.2,2013-03-25 17:05:00,
2013-03-25 10:10:00,60.9,56.6,30.01,South,170,2.0,5.0,86,0.00,,,0.00,543,HR-IXP-WINDi_r2_v1.2,2013-03-25 17:10:00,
2013-03-25 10:16:00,63.2,57.5,30.01,SSE,151,1.0,5.0,82,0.00,,,0.00,557,HR-IXP-WINDi_r2_v1.2,2013-03-25 17:16:00,
2013-03-25 10:21:00,62.5,56.5,30.01,SSW,213,1.0,4.0,81,0.00,,,0.00,594,HR-IXP-WINDi_r2_v1.2,2013-03-25 17:21:00,
2013-03-25 10:26:00,61.7,55.7,30.01,SSW,212,1.0,4.0,81,0.00,,,0.00,536,HR-IXP-WINDi_r2_v1.2,2013-03-25 17:26:00,
2013-03-25 10:31:00,62.7,56.4,30.01,SSW,213,2.0,4.0,80,0.00,,,0.00,545,HR-IXP-WINDi_r2_v1.2,2013-03-25 17:31:00,
2013-03-25 10:37:00,63.1,56.4,30.00,SW,225,1.0,4.0,79,0.00,,,0.00,636,HR-IXP-WINDi_r2_v1.2,2013-03-25 17:37:00,
2013-03-25 10:42:00,63.4,56.4,30.00,SW,229,3.0,4.0,78,0.00,,,0.00,649,HR-IXP-WINDi_r2_v1.2,2013-03-25 17:42:00,
2013-03-25 10:47:00,63.4,56.0,30.00,WSW,252,3.0,4.0,77,0.00,,,0.00,675,HR-IXP-WINDi_r2_v1.2,2013-03-25 17:47:00,
2013-03-25 10:52:00,63.8,56.0,30.00,SW,225,0.0,4.0,76,0.00,,,0.00,612,HR-IXP-WINDi_r2_v1.2,2013-03-25 17:52:00,
2013-03-25 10:57:00,65.1,57.6,30.00,SW,225,3.0,4.0,77,0.00,,,0.00,642,HR-IXP-WINDi_r2_v1.2,2013-03-25 17:57:00,
2013-03-25 11:02:00,66.2,58.0,30.00,SE,139,2.0,5.0,75,0.00,,,0.00,638,HR-IXP-WINDi_r2_v1.2,2013-03-25 18:02:00,
2013-03-25 11:08:00,67.6,56.6,30.00,WNW,296,3.0,5.0,68,0.00,,,0.00,652,HR-IXP-WINDi_r2_v1.2,2013-03-25 18:08:00,
2013-03-25 11:13:00,65.8,56.8,30.00,South,188,5.0,5.0,73,0.00,,,0.00,740,HR-IXP-WINDi_r2_v1.2,2013-03-25 18:13:00,
2013-03-25 11:18:00,66.3,56.9,30.00,West,267,2.0,6.0,72,0.00,,,0.00,751,HR-IXP-WINDi_r2_v1.2,2013-03-25 18:18:00,
2013-03-25 11:23:00,66.0,57.0,30.00,SW,232,2.0,6.0,73,0.00,,,0.00,722,HR-IXP-WINDi_r2_v1.2,2013-03-25 18:23:00,
2013-03-25 11:28:00,66.0,57.0,30.00,West,259,1.0,6.0,73,0.00,,,0.00,631,HR-IXP-WINDi_r2_v1.2,2013-03-25 18:28:00,
2013-03-25 11:33:00,66.4,57.0,29.99,SSW,203,4.0,6.0,72,0.00,,,0.00,772,HR-IXP-WINDi_r2_v1.2,2013-03-25 18:33:00,
2013-03-25 11:38:00,68.8,57.7,29.99,SW,227,5.0,6.0,68,0.00,,,0.00,786,HR-IXP-WINDi_r2_v1.2,2013-03-25 18:38:00,
2013-03-25 11:44:00,67.9,57.7,29.99,SW,222,5.0,8.0,70,0.00,,,0.00,728,HR-IXP-WINDi_r2_v1.2,2013-03-25 18:44:00,
2013-03-25 11:49:00,67.7,57.1,29.99,SW,220,3.0,8.0,69,0.00,,,0.00,788,HR-IXP-WINDi_r2_v1.2,2013-03-25 18:49:00,
2013-03-25 11:54:00,67.6,57.0,29.99,SSW,208,3.0,8.0,69,0.00,,,0.00,772,HR-IXP-WINDi_r2_v1.2,2013-03-25 18:54:00,
2013-03-25 11:59:00,67.7,58.3,29.99,SSE,165,2.0,7.0,72,0.00,,,0.00,707,HR-IXP-WINDi_r2_v1.2,2013-03-25 18:59:00,
2013-03-25 12:04:00,67.9,57.3,29.98,WSW,248,2.0,7.0,69,0.00,,,0.00,756,HR-IXP-WINDi_r2_v1.2,2013-03-25 19:04:00,
2013-03-25 12:09:00,67.9,57.7,29.98,WSW,256,3.0,7.0,70,0.00,,,0.00,784,HR-IXP-WINDi_r2_v1.2,2013-03-25 19:09:00,
2013-03-25 12:14:00,67.8,56.8,29.99,SSW,194,1.0,7.0,68,0.00,,,0.00,796,HR-IXP-WINDi_r2_v1.2,2013-03-25 19:14:00,
2013-03-25 12:20:00,67.7,57.1,29.98,WSW,255,2.0,6.0,69,0.00,,,0.00,752,HR-IXP-WINDi_r2_v1.2,2013-03-25 19:20:00,
2013-03-25 12:25:00,68.5,57.5,29.98,SW,219,7.0,7.0,68,0.00,,,0.00,763,HR-IXP-WINDi_r2_v1.2,2013-03-25 19:25:00,
2013-03-25 12:30:00,68.8,57.3,29.98,SW,232,4.0,7.0,67,0.00,,,0.00,686,HR-IXP-WINDi_r2_v1.2,2013-03-25 19:30:00,
2013-03-25 12:35:00,68.7,57.2,29.98,SSW,198,3.0,7.0,67,0.00,,,0.00,666,HR-IXP-WINDi_r2_v1.2,2013-03-25 19:35:00,
2013-03-25 12:40:00,69.2,57.3,29.97,SSW,195,3.0,6.0,66,0.00,,,0.00,638,HR-IXP-WINDi_r2_v1.2,2013-03-25 19:40:00,
2013-03-25 12:45:00,69.8,56.6,29.97,SSW,204,3.0,6.0,63,0.00,,,0.00,656,HR-IXP-WINDi_r2_v1.2,2013-03-25 19:45:00,
2013-03-25 12:50:00,68.7,55.5,29.97,SW,227,4.0,8.0,63,0.00,,,0.00,571,HR-IXP-WINDi_r2_v1.2,2013-03-25 19:50:00,
2013-03-25 12:56:00,68.7,55.5,29.97,SW,223,3.0,8.0,63,0.00,,,0.00,640,HR-IXP-WINDi_r2_v1.2,2013-03-25 19:56:00,
2013-03-25 13:01:00,69.1,55.5,29.96,WSW,252,4.0,6.0,62,0.00,,,0.00,540,HR-IXP-WINDi_r2_v1.2,2013-03-25 20:01:00,
2013-03-25 13:06:00,68.7,54.7,29.96,WSW,251,2.0,7.0,61,0.00,,,0.00,647,HR-IXP-WINDi_r2_v1.2,2013-03-25 20:06:00,
2013-03-25 13:12:00,69.6,55.0,29.96,WSW,238,2.0,7.0,60,0.00,,,0.00,670,HR-IXP-WINDi_r2_v1.2,2013-03-25 20:12:00,
2013-03-25 13:17:00,69.5,54.5,29.96,South,184,3.0,8.0,59,0.00,,,0.00,686,HR-IXP-WINDi_r2_v1.2,2013-03-25 20:17:00,
2013-03-25 13:22:00,70.1,54.1,29.95,SW,217,3.0,8.0,57,0.00,,,0.00,816,HR-IXP-WINDi_r2_v1.2,2013-03-25 20:22:00,
2013-03-25 13:28:00,70.1,53.1,29.95,WNW,291,2.0,8.0,55,0.00,,,0.00,828,HR-IXP-WINDi_r2_v1.2,2013-03-25 20:28:00,
2013-03-25 13:33:00,69.9,52.9,29.95,WSW,250,2.0,8.0,55,0.00,,,0.00,840,HR-IXP-WINDi_r2_v1.2,2013-03-25 20:33:00,
2013-03-25 13:38:00,71.0,54.9,29.95,SSW,204,4.0,7.0,57,0.00,,,0.00,835,HR-IXP-WINDi_r2_v1.2,2013-03-25 20:38:00,
2013-03-25 13:43:00,71.3,55.2,29.95,South,183,3.0,7.0,57,0.00,,,0.00,721,HR-IXP-WINDi_r2_v1.2,2013-03-25 20:43:00,
2013-03-25 13:48:00,71.9,54.8,29.95,West,273,4.0,7.0,55,0.00,,,0.00,715,HR-IXP-WINDi_r2_v1.2,2013-03-25 20:48:00,
2013-03-25 13:53:00,71.4,54.3,29.94,SSW,198,4.0,7.0,55,0.00,,,0.00,752,HR-IXP-WINDi_r2_v1.2,2013-03-25 20:53:00,
2013-03-25 13:58:00,71.7,54.6,29.94,South,179,7.0,8.0,55,0.00,,,0.00,664,HR-IXP-WINDi_r2_v1.2,2013-03-25 20:58:00,
2013-03-25 14:03:00,71.2,54.2,29.94,SSW,194,4.0,8.0,55,0.00,,,0.00,715,HR-IXP-WINDi_r2_v1.2,2013-03-25 21:03:00,
2013-03-25 14:08:00,71.4,54.3,29.94,SW,223,4.0,8.0,55,0.00,,,0.00,654,HR-IXP-WINDi_r2_v1.2,2013-03-25 21:08:00,
2013-03-25 14:13:00,71.0,54.5,29.94,South,186,3.0,8.0,56,0.00,,,0.00,329,HR-IXP-WINDi_r2_v1.2,2013-03-25 21:13:00,
2013-03-25 14:19:00,70.5,55.4,29.93,SSW,200,5.0,7.0,59,0.00,,,0.00,682,HR-IXP-WINDi_r2_v1.2,2013-03-25 21:19:00,
2013-03-25 14:24:00,71.1,55.0,29.94,SW,217,4.0,8.0,57,0.00,,,0.00,591,HR-IXP-WINDi_r2_v1.2,2013-03-25 21:24:00,
2013-03-25 14:29:00,70.3,56.2,29.93,SSW,210,4.0,10.0,61,0.00,,,0.00,596,HR-IXP-WINDi_r2_v1.2,2013-03-25 21:29:00,
2013-03-25 14:34:00,70.1,55.5,29.93,SW,225,4.0,10.0,60,0.00,,,0.00,645,HR-IXP-WINDi_r2_v1.2,2013-03-25 21:34:00,
2013-03-25 14:39:00,69.9,54.4,29.93,SW,223,7.0,9.0,58,0.00,,,0.00,520,HR-IXP-WINDi_r2_v1.2,2013-03-25 21:39:00,
2013-03-25 14:44:00,70.1,56.0,29.92,SW,215,3.0,9.0,61,0.00,,,0.00,443,HR-IXP-WINDi_r2_v1.2,2013-03-25 21:44:00,
2013-03-25 14:50:00,69.7,56.0,29.92,SSW,205,4.0,8.0,62,0.00,,,0.00,540,HR-IXP-WINDi_r2_v1.2,2013-03-25 21:50:00,
2013-03-25 14:55:00,69.7,55.6,29.92,SW,222,4.0,8.0,61,0.00,,,0.00,552,HR-IXP-WINDi_r2_v1.2,2013-03-25 21:55:00,
2013-03-25 15:00:00,69.7,55.1,29.92,SW,234,5.0,9.0,60,0.00,,,0.00,564,HR-IXP-WINDi_r2_v1.2,2013-03-25 22:00:00,
2013-03-25 15:05:00,69.6,56.4,29.92,SW,219,3.0,9.0,63,0.00,,,0.00,443,HR-IXP-WINDi_r2_v1.2,2013-03-25 22:05:00,
2013-03-25 15:10:00,68.8,56.1,29.92,SW,230,4.0,9.0,64,0.00,,,0.00,292,HR-IXP-WINDi_r2_v1.2,2013-03-25 22:10:00,
2013-03-25 15:15:00,68.0,56.2,29.92,SW,214,5.0,10.0,66,0.00,,,0.00,380,HR-IXP-WINDi_r2_v1.2,2013-03-25 22:15:00,
2013-03-25 15:21:00,67.6,56.6,29.92,WSW,248,4.0,10.0,68,0.00,,,0.00,550,HR-IXP-WINDi_r2_v1.2,2013-03-25 22:21:00,
2013-03-25 15:26:00,67.5,56.9,29.92,South,188,3.0,10.0,69,0.00,,,0.00,513,HR-IXP-WINDi_r2_v1.2,2013-03-25 22:26:00,
2013-03-25 15:31:00,67.3,56.7,29.92,SSW,200,4.0,11.0,69,0.00,,,0.00,432,HR-IXP-WINDi_r2_v1.2,2013-03-25 22:31:00,
2013-03-25 15:36:00,66.5,56.7,29.92,SW,217,4.0,11.0,71,0.00,,,0.00,297,HR-IXP-WINDi_r2_v1.2,2013-03-25 22:36:00,
2013-03-25 15:41:00,66.5,56.7,29.92,SW,232,6.0,9.0,71,0.00,,,0.00,406,HR-IXP-WINDi_r2_v1.2,2013-03-25 22:41:00,
2013-03-25 15:46:00,66.2,56.1,29.92,South,186,3.0,10.0,70,0.00,,,0.00,492,HR-IXP-WINDi_r2_v1.2,2013-03-25 22:46:00,
2013-03-25 15:51:00,66.1,56.4,29.92,SSW,199,6.0,10.0,71,0.00,,,0.00,308,HR-IXP-WINDi_r2_v1.2,2013-03-25 22:51:00,
2013-03-25 15:56:00,65.4,56.1,29.92,SW,232,2.0,10.0,72,0.00,,,0.00,297,HR-IXP-WINDi_r2_v1.2,2013-03-25 22:56:00,
2013-03-25 16:01:00,65.9,56.9,29.92,SW,229,2.0,10.0,73,0.00,,,0.00,320,HR-IXP-WINDi_r2_v1.2,2013-03-25 23:01:00,
2013-03-25 16:06:00,65.6,56.7,29.92,SSW,208,8.0,10.0,73,0.00,,,0.00,411,HR-IXP-WINDi_r2_v1.2,2013-03-25 23:06:00,
2013-03-25 16:12:00,65.8,57.6,29.92,SSW,192,7.0,10.0,75,0.00,,,0.00,466,HR-IXP-WINDi_r2_v1.2,2013-03-25 23:12:00,
2013-03-25 16:17:00,66.8,57.8,29.92,WSW,242,4.0,10.0,73,0.00,,,0.00,461,HR-IXP-WINDi_r2_v1.2,2013-03-25 23:17:00,
2013-03-25 16:22:00,66.7,57.3,29.92,SSW,207,3.0,10.0,72,0.00,,,0.00,431,HR-IXP-WINDi_r2_v1.2,2013-03-25 23:22:00,
2013-03-25 16:27:00,66.5,57.1,29.92,SW,224,3.0,12.0,72,0.00,,,0.00,362,HR-IXP-WINDi_r2_v1.2,2013-03-25 23:27:00,
2013-03-25 16:33:00,66.4,57.4,29.92,WSW,250,3.0,12.0,73,0.00,,,0.00,478,HR-IXP-WINDi_r2_v1.2,2013-03-25 23:33:00,
2013-03-25 16:38:00,66.6,57.2,29.92,SSW,206,3.0,8.0,72,0.00,,,0.00,378,HR-IXP-WINDi_r2_v1.2,2013-03-25 23:38:00,
2013-03-25 16:43:00,66.0,57.0,29.91,SSW,210,3.0,9.0,73,0.00,,,0.00,360,HR-IXP-WINDi_r2_v1.2,2013-03-25 23:43:00,
2013-03-25 16:48:00,65.6,56.7,29.91,SSW,210,4.0,9.0,73,0.00,,,0.00,374,HR-IXP-WINDi_r2_v1.2,2013-03-25 23:48:00,
2013-03-25 16:53:00,65.2,56.6,29.91,SW,219,8.0,9.0,74,0.00,,,0.00,234,HR-IXP-WINDi_r2_v1.2,2013-03-25 23:53:00,
2013-03-25 16:58:00,65.2,57.0,29.91,SSW,194,3.0,9.0,75,0.00,,,0.00,253,HR-IXP-WINDi_r2_v1.2,2013-03-25 23:58:00,
2013-03-25 17:03:00,65.3,56.4,29.91,SSW,192,4.0,9.0,73,0.00,,,0.00,362,HR-IXP-WINDi_r2_v1.2,2013-03-26 00:03:00,
2013-03-25 17:08:00,65.5,57.3,29.91,SSW,198,5.0,9.0,75,0.00,,,0.00,359,HR-IXP-WINDi_r2_v1.2,2013-03-26 00:08:00,
2013-03-25 17:14:00,64.9,56.7,29.91,SSW,207,7.0,10.0,75,0.00,,,0.00,306,HR-IXP-WINDi_r2_v1.2,2013-03-26 00:14:00,
2013-03-25 17:19:00,65.0,57.2,29.91,SSW,193,3.0,10.0,76,0.00,,,0.00,185,HR-IXP-WINDi_r2_v1.2,2013-03-26 00:19:00,
2013-03-25 17:24:00,64.7,56.5,29.91,South,178,6.0,9.0,75,0.00,,,0.00,155,HR-IXP-WINDi_r2_v1.2,2013-03-26 00:24:00,
2013-03-25 17:29:00,63.9,56.5,29.91,SW,219,8.0,10.0,77,0.00,,,0.00,121,HR-IXP-WINDi_r2_v1.2,2013-03-26 00:29:00,
2013-03-25 17:34:00,63.4,56.4,29.91,SSW,200,4.0,10.0,78,0.00,,,0.00,192,HR-IXP-WINDi_r2_v1.2,2013-03-26 00:34:00,
2013-03-25 17:39:00,63.1,56.8,29.91,SSW,213,3.0,9.0,80,0.00,,,0.00,195,HR-IXP-WINDi_r2_v1.2,2013-03-26 00:39:00,
2013-03-25 17:44:00,63.7,57.4,29.91,SSW,203,1.0,9.0,80,0.00,,,0.00,220,HR-IXP-WINDi_r2_v1.2,2013-03-26 00:44:00,
2013-03-25 17:50:00,64.2,57.5,29.91,SSW,212,4.0,8.0,79,0.00,,,0.00,181,HR-IXP-WINDi_r2_v1.2,2013-03-26 00:50:00,
2013-03-25 17:55:00,63.8,57.1,29.91,SW,235,5.0,8.0,79,0.00,,,0.00,167,HR-IXP-WINDi_r2_v1.2,2013-03-26 00:55:00,
2013-03-25 18:00:00,63.8,57.1,29.91,SW,224,3.0,8.0,79,0.00,,,0.00,125,HR-IXP-WINDi_r2_v1.2,2013-03-26 01:00:00,
2013-03-25 18:05:00,63.2,56.5,29.91,SW,236,4.0,10.0,79,0.00,,,0.00,77,HR-IXP-WINDi_r2_v1.2,2013-03-26 01:05:00,
2013-03-25 18:10:00,62.9,56.9,29.91,SSW,192,2.0,10.0,81,0.00,,,0.00,67,HR-IXP-WINDi_r2_v1.2,2013-03-26 01:10:00,
2013-03-25 18:16:00,62.5,56.9,29.91,SW,223,3.0,8.0,82,0.00,,,0.00,70,HR-IXP-WINDi_r2_v1.2,2013-03-26 01:16:00,
2013-03-25 18:21:00,62.4,56.8,29.91,SSW,209,3.0,7.0,82,0.00,,,0.00,56,HR-IXP-WINDi_r2_v1.2,2013-03-26 01:21:00,
2013-03-25 18:26:00,62.2,56.6,29.91,SSW,194,1.0,7.0,82,0.00,,,0.00,49,HR-IXP-WINDi_r2_v1.2,2013-03-26 01:26:00,
2013-03-25 18:31:00,61.6,56.3,29.91,SSW,208,2.0,7.0,83,0.00,,,0.00,46,HR-IXP-WINDi_r2_v1.2,2013-03-26 01:31:00,
2013-03-25 18:36:00,61.7,56.8,29.91,SW,224,1.0,7.0,84,0.00,,,0.00,42,HR-IXP-WINDi_r2_v1.2,2013-03-26 01:36:00,
2013-03-25 18:41:00,61.6,56.7,29.92,SSE,163,2.0,7.0,84,0.00,,,0.00,37,HR-IXP-WINDi_r2_v1.2,2013-03-26 01:41:00,
2013-03-25 18:46:00,61.4,56.5,29.91,SSE,161,3.0,7.0,84,0.00,,,0.00,32,HR-IXP-WINDi_r2_v1.2,2013-03-26 01:46:00,
2013-03-25 18:51:00,61.4,56.5,29.92,SW,221,2.0,6.0,84,0.00,,,0.00,28,HR-IXP-WINDi_r2_v1.2,2013-03-26 01:51:00,
2013-03-25 18:57:00,61.5,56.6,29.91,SSW,202,2.0,5.0,84,0.00,,,0.00,12,HR-IXP-WINDi_r2_v1.2,2013-03-26 01:57:00,
2013-03-25 19:02:00,61.4,56.5,29.92,SSE,163,0.0,7.0,84,0.00,,,0.00,5,HR-IXP-WINDi_r2_v1.2,2013-03-26 02:02:00,
2013-03-25 19:07:00,61.3,56.4,29.92,South,174,0.0,7.0,84,0.00,,,0.00,0,HR-IXP-WINDi_r2_v1.2,2013-03-26 02:07:00,
2013-03-25 19:12:00,61.3,56.4,29.92,South,184,2.0,5.0,84,0.00,,,0.00,0,HR-IXP-WINDi_r2_v1.2,2013-03-26 02:12:00,
2013-03-25 19:17:00,61.2,56.3,29.92,SSE,167,1.0,4.0,84,0.00,,,0.00,0,HR-IXP-WINDi_r2_v1.2,2013-03-26 02:17:00,
2013-03-25 19:23:00,61.2,56.6,29.92,SSE,167,1.0,4.0,85,0.00,,,0.00,0,HR-IXP-WINDi_r2_v1.2,2013-03-26 02:23:00,
2013-03-25 19:28:00,61.1,56.5,29.92,South,174,1.0,4.0,85,0.00,,,0.00,0,HR-IXP-WINDi_r2_v1.2,2013-03-26 02:28:00,
2013-03-25 19:33:00,61.0,56.4,29.92,South,177,2.0,4.0,85,0.00,,,0.00,0,HR-IXP-WINDi_r2_v1.2,2013-03-26 02:33:00,
2013-03-25 19:38:00,60.8,56.5,29.92,SSE,163,1.0,4.0,86,0.00,,,0.00,0,HR-IXP-WINDi_r2_v1.2,2013-03-26 02:38:00,
2013-03-25 19:43:00,60.7,56.4,29.92,SSE,163,0.0,4.0,86,0.00,,,0.00,0,HR-IXP-WINDi_r2_v1.2,2013-03-26 02:43:00,
2013-03-25 19:48:00,60.6,56.3,29.92,SSE,163,0.0,3.0,86,0.00,,,0.00,0,HR-IXP-WINDi_r2_v1.2,2013-03-26 02:48:00,
2013-03-25 19:53:00,60.5,56.5,29.93,SSE,159,2.0,3.0,87,0.00,,,0.00,0,HR-IXP-WINDi_r2_v1.2,2013-03-26 02:53:00,
2013-03-25 19:58:00,60.4,56.4,29.93,SSE,159,0.0,3.0,87,0.00,,,0.00,0,HR-IXP-WINDi_r2_v1.2,2013-03-26 02:58:00,
2013-03-25 20:04:00,60.4,56.4,29.93,SSE,159,1.0,2.0,87,0.00,,,0.00,0,HR-IXP-WINDi_r2_v1.2,2013-03-26 03:04:00,
2013-03-25 20:09:00,60.3,56.3,29.93,SSE,157,2.0,3.0,87,0.00,,,0.00,0,HR-IXP-WINDi_r2_v1.2,2013-03-26 03:09:00,
2013-03-25 20:14:00,60.2,56.2,29.93,SSE,157,1.0,3.0,87,0.00,,,0.00,0,HR-IXP-WINDi_r2_v1.2,2013-03-26 03:14:00,
2013-03-25 20:19:00,60.1,56.5,29.94,SSE,157,1.0,4.0,88,0.00,,,0.00,0,HR-IXP-WINDi_r2_v1.2,2013-03-26 03:19:00,
2013-03-25 20:24:00,60.0,56.4,29.94,SSE,154,2.0,4.0,88,0.00,,,0.00,0,HR-IXP-WINDi_r2_v1.2,2013-03-26 03:24:00,
2013-03-25 20:30:00,60.0,56.4,29.94,SSE,148,1.0,3.0,88,0.00,,,0.00,0,HR-IXP-WINDi_r2_v1.2,2013-03-26 03:30:00,
2013-03-25 20:35:00,60.0,56.4,29.94,SSE,148,1.0,3.0,88,0.00,,,0.00,0,HR-IXP-WINDi_r2_v1.2,2013-03-26 03:35:00,
2013-03-25 20:40:00,60.0,56.4,29.94,SSE,150,1.0,3.0,88,0.00,,,0.00,0,HR-IXP-WINDi_r2_v1.2,2013-03-26 03:40:00,
2013-03-25 20:45:00,60.0,56.4,29.95,SSE,150,0.0,3.0,88,0.00,,,0.00,0,HR-IXP-WINDi_r2_v1.2,2013-03-26 03:45:00,
2013-03-25 20:50:00,60.0,56.4,29.95,SSE,150,0.0,3.0,88,0.00,,,0.00,0,HR-IXP-WINDi_r2_v1.2,2013-03-26 03:50:00,
2013-03-25 20:55:00,60.0,56.4,29.95,SSE,150,1.0,3.0,88,0.00,,,0.00,0,HR-IXP-WINDi_r2_v1.2,2013-03-26 03:55:00,
2013-03-25 21:00:00,59.9,56.3,29.95,SSE,150,0.0,3.0,88,0.00,,,0.00,0,HR-IXP-WINDi_r2_v1.2,2013-03-26 04:00:00,
2013-03-25 21:05:00,59.8,56.2,29.95,SSE,148,0.0,3.0,88,0.00,,,0.00,0,HR-IXP-WINDi_r2_v1.2,2013-03-26 04:05:00,
2013-03-25 21:10:00,59.7,56.4,29.95,SSE,148,1.0,3.0,89,0.00,,,0.00,0,HR-IXP-WINDi_r2_v1.2,2013-03-26 04:10:00,
2013-03-25 21:15:00,59.6,56.3,29.95,SSE,148,2.0,3.0,89,0.00,,,0.00,0,HR-IXP-WINDi_r2_v1.2,2013-03-26 04:15:00,
2013-03-25 21:20:00,59.5,56.2,29.95,SSE,148,1.0,3.0,89,0.00,,,0.00,0,HR-IXP-WINDi_r2_v1.2,2013-03-26 04:20:00,
2013-03-25 21:25:00,59.4,56.1,29.95,SE,146,0.0,4.0,89,0.00,,,0.00,0,HR-IXP-WINDi_r2_v1.2,2013-03-26 04:25:00,
2013-03-25 21:31:00,59.2,55.9,29.96,SE,146,2.0,4.0,89,0.00,,,0.00,0,HR-IXP-WINDi_r2_v1.2,2013-03-26 04:31:00,
2013-03-25 21:36:00,59.2,55.9,29.96,SE,146,2.0,3.0,89,0.00,,,0.00,0,HR-IXP-WINDi_r2_v1.2,2013-03-26 04:36:00,
2013-03-25 21:41:00,59.2,55.9,29.96,SE,146,0.0,2.0,89,0.00,,,0.00,0,HR-IXP-WINDi_r2_v1.2,2013-03-26 04:41:00,
2013-03-25 21:46:00,59.1,55.8,29.96,SE,146,2.0,3.0,89,0.00,,,0.00,0,HR-IXP-WINDi_r2_v1.2,2013-03-26 04:46:00,
2013-03-25 21:51:00,59.0,56.0,29.96,SE,146,1.0,3.0,90,0.00,,,0.00,0,HR-IXP-WINDi_r2_v1.2,2013-03-26 04:51:00,
2013-03-25 21:57:00,58.8,55.8,29.96,SE,146,0.0,3.0,90,0.00,,,0.00,0,HR-IXP-WINDi_r2_v1.2,2013-03-26 04:57:00,
2013-03-25 22:02:00,58.7,55.7,29.96,SE,146,0.0,2.0,90,0.00,,,0.00,0,HR-IXP-WINDi_r2_v1.2,2013-03-26 05:02:00,
2013-03-25 22:07:00,58.7,55.7,29.96,SE,145,0.0,1.0,90,0.00,,,0.00,0,HR-IXP-WINDi_r2_v1.2,2013-03-26 05:07:00,
2013-03-25 22:12:00,58.5,55.5,29.96,SE,146,0.0,1.0,90,0.00,,,0.00,0,HR-IXP-WINDi_r2_v1.2,2013-03-26 05:12:00,
2013-03-25 22:17:00,58.5,55.8,29.97,SE,145,0.0,2.0,91,0.00,,,0.00,0,HR-IXP-WINDi_r2_v1.2,2013-03-26 05:17:00,
2013-03-25 22:23:00,58.4,55.4,29.97,SE,146,0.0,2.0,90,0.00,,,0.00,0,HR-IXP-WINDi_r2_v1.2,2013-03-26 05:23:00,
2013-03-25 22:28:00,58.2,55.5,29.97,SE,145,0.0,2.0,91,0.00,,,0.00,0,HR-IXP-WINDi_r2_v1.2,2013-03-26 05:28:00,
2013-03-25 22:33:00,58.2,55.5,29.97,SE,146,1.0,2.0,91,0.00,,,0.00,0,HR-IXP-WINDi_r2_v1.2,2013-03-26 05:33:00,
2013-03-25 22:38:00,58.1,55.4,29.97,SE,146,0.0,3.0,91,0.00,,,0.00,0,HR-IXP-WINDi_r2_v1.2,2013-03-26 05:38:00,
2013-03-25 22:44:00,58.1,55.4,29.97,SE,146,0.0,3.0,91,0.00,,,0.00,0,HR-IXP-WINDi_r2_v1.2,2013-03-26 05:44:00,
2013-03-25 22:49:00,58.1,55.7,29.97,SE,145,0.0,2.0,92,0.00,,,0.00,0,HR-IXP-WINDi_r2_v1.2,2013-03-26 05:49:00,
2013-03-25 22:54:00,58.0,55.6,29.97,SE,146,0.0,3.0,92,0.00,,,0.00,0,HR-IXP-WINDi_r2_v1.2,2013-03-26 05:54:00,
2013-03-25 22:59:00,58.0,55.6,29.97,SE,146,0.0,3.0,92,0.00,,,0.00,0,HR-IXP-WINDi_r2_v1.2,2013-03-26 05:59:00,
2013-03-25 23:04:00,57.8,55.4,29.97,SE,146,0.0,2.0,92,0.00,,,0.00,0,HR-IXP-WINDi_r2_v1.2,2013-03-26 06:04:00,
2013-03-25 23:09:00,57.7,55.3,29.97,SE,145,0.0,2.0,92,0.00,,,0.00,0,HR-IXP-WINDi_r2_v1.2,2013-03-26 06:09:00,
2013-03-25 23:15:00,57.7,55.3,29.97,SE,146,0.0,2.0,92,0.00,,,0.00,0,HR-IXP-WINDi_r2_v1.2,2013-03-26 06:15:00,
2013-03-25 23:20:00,57.7,55.3,29.97,SE,146,0.0,2.0,92,0.00,,,0.00,0,HR-IXP-WINDi_r2_v1.2,2013-03-26 06:20:00,
2013-03-25 23:25:00,57.6,55.2,29.97,SE,146,0.0,2.0,92,0.00,,,0.00,0,HR-IXP-WINDi_r2_v1.2,2013-03-26 06:25:00,
2013-03-25 23:30:00,57.5,55.1,29.97,SE,146,1.0,3.0,92,0.00,,,0.00,0,HR-IXP-WINDi_r2_v1.2,2013-03-26 06:30:00,
2013-03-25 23:35:00,57.4,55.0,29.97,SE,146,0.0,3.0,92,0.00,,,0.00,0,HR-IXP-WINDi_r2_v1.2,2013-03-26 06:35:00,
2013-03-25 23:40:00,57.4,55.0,29.97,SE,146,0.0,2.0,92,0.00,,,0.00,0,HR-IXP-WINDi_r2_v1.2,2013-03-26 06:40:00,
2013-03-25 23:45:00,57.4,55.0,29.97,SE,146,0.0,2.0,92,0.00,,,0.00,0,HR-IXP-WINDi_r2_v1.2,2013-03-26 06:45:00,
2013-03-25 23:51:00,57.4,55.3,29.97,SSE,161,0.0,3.0,93,0.00,,,0.00,0,HR-IXP-WINDi_r2_v1.2,2013-03-26 06:51:00,
2013-03-25 23:56:00,57.4,55.3,29.97,SSE,161,0.0,3.0,93,0.00,,,0.00,0,HR-IXP-WINDi_r2_v1.2,2013-03-26 06:56:00,